Location: *
(35.2348°S, 91.3916°E)
Time: 02:44:27
(UTC+00:00)

GPS 2-04 Rocket1 - Pass Details

Date: 23 October 2019
Orbit: 420 x 551 km, 35.6° (Epoch: 20 November)

Event Time Altitude Azimuth Distance (km) Brightness Sun altitude
Rises 13:54:48 0° 270° (W) 2,396 7.1 -19.5°
Reaches altitude 10° 13:56:54 10° 269° (W) 1,542 6.0 -19.8°
Maximum altitude 14:00:24 82° 182° (S) 455 2.3 -20.5°
Enters shadow 14:00:34 78° 133° (SE) 460 2.3 -20.5°
